• In Lithuania
  • List of Countries
  • For 7 days
  • Water Temperature
  • Satellite Maps
  • Weather Map
  • Weather Widgets
  • user-avatar
    Login

    Hourly Weather Poperechnyy

    Today, 18 August, Saturday

    Time Temperature Precipitation Wind Pressure Humidity
    00:00 +26°C° 0 mm 2 mps 746 mmHg 38%
    01:00 +26°C° 0 mm 1 mps 746 mmHg 41%
    02:00 +25°C° 0 mm 1 mps 746 mmHg 43%
    03:00 +23°C° 0 mm 0 mps 746 mmHg 45%
    04:00 +25°C° 0 mm 1 mps 746 mmHg 45%
    05:00 +25°C° 0 mm 1 mps 746 mmHg 45%
    06:00 +24°C° 0 mm 1 mps 746 mmHg 45%
    07:00 +27°C° 0 mm 2 mps 746 mmHg 39%
    08:00 +29°C° 0 mm 2 mps 746 mmHg 32%
    09:00 +31°C° 0 mm 3 mps 747 mmHg 26%
    10:00 +34°C° 0 mm 3 mps 746 mmHg 23%
    11:00 +35°C° 0 mm 4 mps 746 mmHg 21%
    12:00 +36°C° 0 mm 5 mps 746 mmHg 18%
    13:00 +36°C° 0 mm 5 mps 746 mmHg 19%
    14:00 +36°C° 0 mm 5 mps 746 mmHg 19%
    15:00 +36°C° 0 mm 5 mps 746 mmHg 19%
    16:00 +35°C° 0 mm 5 mps 746 mmHg 22%
    17:00 +34°C° 0 mm 4 mps 746 mmHg 25%
    18:00 +33°C° 0 mm 4 mps 746 mmHg 27%
    19:00 +32°C° 0 mm 4 mps 746 mmHg 31%
    20:00 +30°C° 0 mm 5 mps 746 mmHg 34%
    21:00 +28°C° 0 mm 5 mps 747 mmHg 37%
    22:00 +27°C° 0 mm 5 mps 747 mmHg 40%
    23:00 +27°C° 0 mm 6 mps 747 mmHg 43%

    Tomorrow, 19 August, Sunday

    Time Temperature Precipitation Wind Pressure Humidity
    00:00 +26°C° 0 mm 6 mps 747 mmHg 46%
    01:00 +24°C° 0 mm 6 mps 748 mmHg 44%
    02:00 +23°C° 0 mm 6 mps 748 mmHg 42%
    03:00 +23°C° 0 mm 5 mps 748 mmHg 39%
    04:00 +22°C° 0 mm 5 mps 749 mmHg 39%
    05:00 +21°C° 0 mm 5 mps 749 mmHg 39%
    06:00 +21°C° 0 mm 4 mps 749 mmHg 39%
    07:00 +22°C° 0 mm 5 mps 749 mmHg 37%
    08:00 +23°C° 0 mm 6 mps 750 mmHg 36%
    09:00 +24°C° 0 mm 6 mps 750 mmHg 35%
    10:00 +26°C° 0 mm 6 mps 750 mmHg 32%
    11:00 +27°C° 0 mm 6 mps 750 mmHg 30%
    12:00 +28°C° 0 mm 6 mps 750 mmHg 27%
    13:00 +28°C° 0 mm 6 mps 750 mmHg 26%
    14:00 +28°C° 0 mm 6 mps 749 mmHg 24%
    15:00 +29°C° 0 mm 6 mps 749 mmHg 23%
    16:00 +28°C° 0 mm 5 mps 749 mmHg 24%
    17:00 +27°C° 0 mm 5 mps 749 mmHg 25%
    18:00 +27°C° 0 mm 5 mps 749 mmHg 26%
    19:00 +25°C° 0 mm 4 mps 750 mmHg 28%
    20:00 +23°C° 0 mm 4 mps 750 mmHg 30%
    21:00 +21°C° 0 mm 3 mps 751 mmHg 31%
    22:00 +21°C° 0 mm 4 mps 751 mmHg 33%
    23:00 +20°C° 0 mm 4 mps 751 mmHg 35%

    Day after tomorrow, 20 August, Monday

    Time Temperature Precipitation Wind Pressure Humidity
    00:00 +20°C° 0 mm 4 mps 751 mmHg 36%
    01:00 +19°C° 0 mm 3 mps 751 mmHg 38%
    02:00 +18°C° 0 mm 3 mps 750 mmHg 39%
    03:00 +18°C° 0 mm 3 mps 750 mmHg 41%
    04:00 +18°C° 0 mm 3 mps 750 mmHg 42%
    05:00 +17°C° 0 mm 3 mps 751 mmHg 44%
    06:00 +17°C° 0 mm 3 mps 751 mmHg 45%
    07:00 +19°C° 0 mm 4 mps 751 mmHg 42%
    08:00 +21°C° 0 mm 5 mps 751 mmHg 38%
    09:00 +24°C° 0 mm 6 mps 751 mmHg 34%
    10:00 +26°C° 0 mm 6 mps 751 mmHg 32%
    11:00 +27°C° 0 mm 6 mps 751 mmHg 30%
    12:00 +28°C° 0 mm 7 mps 750 mmHg 27%
    13:00 +29°C° 0 mm 7 mps 750 mmHg 26%
    14:00 +29°C° 0 mm 7 mps 750 mmHg 25%
    15:00 +30°C° 0 mm 7 mps 750 mmHg 23%
    16:00 +29°C° 0 mm 6 mps 750 mmHg 24%
    17:00 +28°C° 0 mm 6 mps 750 mmHg 25%
    18:00 +28°C° 0 mm 5 mps 750 mmHg 26%
    19:00 +26°C° 0 mm 5 mps 750 mmHg 28%
    20:00 +25°C° 0 mm 5 mps 750 mmHg 30%
    21:00 +22°C° 0 mm 5 mps 750 mmHg 32%
    22:00 +22°C° 0 mm 5 mps 750 mmHg 35%
    23:00 +21°C° 0 mm 4 mps 750 mmHg 38%

    21 August, Tuesday

    Time Temperature Precipitation Wind Pressure Humidity
    00:00 +20°C° 0 mm 4 mps 750 mmHg 41%
    01:00 +19°C° 0 mm 4 mps 750 mmHg 47%
    02:00 +19°C° 0 mm 4 mps 750 mmHg 53%
    03:00 +18°C° 0 mm 4 mps 750 mmHg 59%
    04:00 +18°C° 0 mm 4 mps 750 mmHg 61%
    05:00 +18°C° 0 mm 4 mps 750 mmHg 63%
    06:00 +18°C° 0 mm 4 mps 751 mmHg 66%
    07:00 +20°C° 0 mm 5 mps 751 mmHg 59%
    08:00 +21°C° 0 mm 6 mps 751 mmHg 53%
    09:00 +23°C° 0 mm 6 mps 751 mmHg 46%
    10:00 +24°C° 0 mm 6 mps 751 mmHg 43%
    11:00 +27°C° 0 mm 6 mps 750 mmHg 40%
    12:00 +28°C° 0 mm 7 mps 750 mmHg 37%
    13:00 +29°C° 0 mm 6 mps 750 mmHg 36%
    14:00 +30°C° 0 mm 6 mps 750 mmHg 34%
    15:00 +30°C° 0 mm 6 mps 749 mmHg 33%
    16:00 +30°C° 0 mm 6 mps 749 mmHg 35%
    17:00 +29°C° 0 mm 6 mps 749 mmHg 37%
    18:00 +29°C° 0 mm 5 mps 749 mmHg 39%
    19:00 +28°C° 0 mm 5 mps 750 mmHg 42%
    20:00 +26°C° 0 mm 5 mps 750 mmHg 45%
    21:00 +25°C° 0 mm 5 mps 750 mmHg 48%
    22:00 +23°C° 0.1 mm 5 mps 750 mmHg 51%
    23:00 +23°C° 0.1 mm 4 mps 750 mmHg 54%

    22 August, Wednesday

    Time Temperature Precipitation Wind Pressure Humidity
    00:00 +22°C° 0.1 mm 4 mps 750 mmHg 57%
    01:00 +21°C° 0 mm 4 mps 750 mmHg 60%
    02:00 +21°C° 0 mm 3 mps 750 mmHg 63%
    03:00 +20°C° 0 mm 3 mps 750 mmHg 66%
    04:00 +20°C° 0 mm 3 mps 750 mmHg 67%
    05:00 +19°C° 0 mm 3 mps 750 mmHg 68%
    06:00 +19°C° 0 mm 3 mps 751 mmHg 69%
    07:00 +21°C° 0 mm 3 mps 751 mmHg 61%
    08:00 +23°C° 0 mm 4 mps 751 mmHg 54%
    09:00 +26°C° 0 mm 4 mps 751 mmHg 47%
    10:00 +28°C° 0 mm 4 mps 751 mmHg 42%
    11:00 +29°C° 0 mm 4 mps 750 mmHg 38%
    12:00 +30°C° 0 mm 4 mps 750 mmHg 34%
    13:00 +32°C° 0 mm 4 mps 750 mmHg 32%
    14:00 +33°C° 0 mm 4 mps 749 mmHg 30%
    15:00 +33°C° 0 mm 4 mps 749 mmHg 27%
    16:00 +33°C° 0 mm 4 mps 749 mmHg 28%
    17:00 +31°C° 0 mm 3 mps 749 mmHg 29%
    18:00 +31°C° 0 mm 3 mps 749 mmHg 30%
    19:00 +29°C° 0 mm 3 mps 749 mmHg 31%
    20:00 +28°C° 0 mm 3 mps 750 mmHg 32%
    21:00 +26°C° 0 mm 2 mps 750 mmHg 34%
    22:00 +26°C° 0 mm 3 mps 750 mmHg 36%
    23:00 +25°C° 0 mm 3 mps 750 mmHg 38%

    23 August, Thursday

    Time Temperature Precipitation Wind Pressure Humidity
    00:00 +24°C° 0 mm 3 mps 750 mmHg 39%
    01:00 +24°C° 0 mm 3 mps 749 mmHg 44%
    02:00 +22°C° 0 mm 3 mps 749 mmHg 49%
    03:00 +22°C° 0 mm 3 mps 749 mmHg 54%
    04:00 +22°C° 0 mm 3 mps 749 mmHg 57%
    05:00 +21°C° 0 mm 3 mps 749 mmHg 61%
    06:00 +21°C° 0 mm 3 mps 749 mmHg 65%
    07:00 +24°C° 0 mm 3 mps 749 mmHg 58%
    08:00 +26°C° 0 mm 4 mps 749 mmHg 52%
    09:00 +28°C° 0 mm 4 mps 749 mmHg 45%
    10:00 +30°C° 0 mm 5 mps 749 mmHg 40%
    11:00 +32°C° 0 mm 5 mps 748 mmHg 35%
    12:00 +34°C° 0 mm 5 mps 748 mmHg 31%
    13:00 +34°C° 0 mm 5 mps 748 mmHg 29%
    14:00 +35°C° 0 mm 5 mps 747 mmHg 27%
    15:00 +36°C° 0 mm 5 mps 747 mmHg 26%
    16:00 +35°C° 0 mm 5 mps 747 mmHg 27%
    17:00 +34°C° 0 mm 4 mps 747 mmHg 28%
    18:00 +34°C° 0 mm 4 mps 747 mmHg 29%
    19:00 +32°C° 0 mm 4 mps 747 mmHg 31%
    20:00 +30°C° 0 mm 4 mps 747 mmHg 33%
    21:00 +28°C° 0 mm 4 mps 747 mmHg 35%
    22:00 +27°C° 0 mm 4 mps 747 mmHg 38%
    23:00 +26°C° 0 mm 4 mps 747 mmHg 41%
    Show more